KF2XN Weather Reports


time (UTC)temp
F
wind
direction
speed
knots
gust
knots
rain 1hr
in
rain 24hr
in
rain mn
in
humidity
%
barometer
mb
20260504001502 54 259 7.0 15.6 0.00 0.00 0.00 54 1008.9
20260504000001 54 255 5.2 13.0 0.00 0.00 0.00 55 1008.9
20260503234502 54 305 4.3 11.3 0.00 0.00 0.00 56 1009.1
20260503233059 54 273 2.6 14.8 0.00 0.00 0.00 56 1009.3
20260503231554 54 273 1.7 8.7 0.00 0.00 0.00 60 1009.4
20260503230054 54 214 7.0 13.9 0.00 0.00 0.00 60 1009.5
20260503224553 54 219 2.6 9.6 0.00 0.00 0.00 61 1009.5
20260503223051 53 214 2.6 8.7 0.00 0.00 0.00 62 1009.7
20260503221556 53 231 1.7 8.7 0.00 0.00 0.00 64 1009.7
20260503220047 53 261 4.3 13.9 0.00 0.00 0.00 65 1009.8
20260503214545 52 190 6.1 12.2 0.00 0.00 0.00 65 1009.6
20260503213044 53 244 7.0 16.5 0.00 0.00 0.00 64 1009.3
20260503211528 53 253 9.6 19.1 0.00 0.00 0.00 63 1009.1
20260503210026 53 248 10.4 19.1 0.00 0.00 0.00 62 1009.1
20260503204525 51 217 10.4 15.6 0.00 0.00 0.00 64 1009.3
20260503203021 52 230 5.2 13.9 0.00 0.00 0.00 64 1009.4
20260503201518 52 227 7.8 13.0 0.00 0.00 0.00 63 1009.6
20260503200016 52 245 6.1 13.9 0.00 0.00 0.00 63 1009.8
20260503194514 53 211 7.8 15.6 0.00 0.00 0.00 61 1010.0
20260503193009 54 231 7.8 18.2 0.00 0.00 0.00 59 1010.1
20260503191506 53 249 9.6 17.4 0.00 0.00 0.00 60 1010.4
20260503190005 53 248 8.7 18.2 0.00 0.00 0.00 58 1010.6
20260503184503 52 252 7.0 20.0 0.00 0.00 0.00 58 1011.0
20260503183100 52 248 9.6 18.2 0.00 0.00 0.00 56 1011.2
20260503181554 52 233 13.0 19.1 0.00 0.00 0.00 53 1011.4
20260503180100 53 270 8.7 18.2 0.00 0.00 0.00 48 1011.6
20260503174554 52 228 10.4 20.0 0.00 0.00 0.00 52 1011.7
20260503173047 51 175 7.0 14.8 0.00 0.00 0.00 60 1012.0
20260503171548 50 245 6.1 15.6 0.00 0.00 0.00 63 1012.4
20260503140109 48 261 5.2 10.4 0.00 0.00 0.00 73 1013.6
20260503081547 30 238 0.0 0.0 0.00 0.00 0.00 91 1014.4
20260503071548 33 238 0.0 0.9 0.00 0.00 0.00 89 1014.4
20260503054515 35 247 0.0 0.0 0.00 0.00 0.00 83 1014.6
20260503053009 36 247 0.0 0.9 0.00 0.00 0.00 81 1014.7
20260503051506 36 200 0.0 0.9 0.00 0.00 0.00 80 1014.8
20260503050012 36 249 0.0 1.7 0.00 0.00 0.00 81 1014.8
20260503044505 36 238 0.0 0.9 0.00 0.00 0.00 82 1014.9
20260503043106 37 252 0.0 0.9 0.00 0.00 0.00 81 1015.0
20260503041556 37 228 0.9 1.7 0.00 0.00 0.00 81 1015.1
20260503040104 37 217 0.9 1.7 0.00 0.00 0.00 83 1015.1
20260503034553 38 214 0.0 1.7 0.00 0.00 0.00 83 1015.1
20260503033053 38 213 0.9 2.6 0.00 0.00 0.00 83 1015.2
20260503031601 39 210 0.9 1.7 0.00 0.00 0.00 83 1015.2
20260503030050 39 202 0.9 1.7 0.00 0.00 0.00 83 1015.2
20260503024547 40 202 0.0 0.9 0.00 0.00 0.00 82 1015.3
20260503023050 40 195 0.9 1.7 0.00 0.00 0.00 81 1015.4
20260503021539 40 200 0.0 1.7 0.00 0.00 0.00 80 1015.5
20260503020039 40 203 0.9 1.7 0.00 0.00 0.00 77 1015.6
20260503014547 41 219 0.0 2.6 0.00 0.00 0.00 74 1015.5
20260503013039 41 217 0.0 1.7 0.00 0.00 0.00 73 1015.6
20260503011528 41 244 0.0 3.5 0.00 0.00 0.00 72 1015.5
20260503010034 41 237 0.0 2.6 0.00 0.00 0.00 75 1015.4
20260503004528 41 282 0.0 3.5 0.00 0.00 0.00 75 1015.5
20260503003024 41 311 0.9 4.3 0.00 0.00 0.00 76 1015.4